SL-16 DEB

基本信息
目录编号:
22619
目录名称:
SL-16 DEB
国际标识:
1993-016AD
轨道中心:
EARTH
物体状态:
在轨
发射日期:
1993-03-26 UTC
轨道信息
数据来源: 国际轨道数据
星历时间: 2026-09-11T00:39:25+0800
半长轴: 7363.755km
偏心率: 0.0185441
轨道倾角: 70.999°
近地点辐角: 22.125°
升交点赤经: 73.295°
平近点角: 62.010°
近地点: 849.063km
远地点: 1122.173km
周期: 104.811分钟
每日圈数: 13.738958
详细信息
发射场:
TTMTR
轨道高度:
LEO
数据来源:
AOE Integration Group
参考系:
TEME
时间系统:
UTC
历元类型:
SGP4
2D轨道图
3D轨道图
轨道高度分析图
轨道倾角分析图
轨道综合分析图
查看轨道综合分析图